MUOS-4

Last updated on Wed Mar 04 2026 00:02:50 GMT+0000 (Coordinated Universal Time)

1 40887U 15044A 26062.64591025 -.00000104 00000+0 00000+0 0 9993 2 40887 4.1324 41.5170 0058069 358.0361 69.3418 1.00271523 38503
UTC large
Height (km)
Speed (km/s)
/
Latitude / Longitude
Inclination (degrees)
Orbital Period (minutes)
Azimuth
Elevation
Range (km)
Doppler Factor

Next 0 passes for location: London (51.5072 / 0.1276)

Sorry there are no passes over London.